Regional Weather Roundup
Issued by NWS Cleveland, OH

Home | Current Version | Previous Version | Graphics & Text | Print | Product List | Glossary On
Versions: 1 2 3 4 5 6 7 8 9 10 11 12 13 14 15 16 17 18 19 20 21 22 23 24 25 26 27 28 29 30 31 32 33 34 35 36 37 38 39 40 41 42 43 44 45 46 47 48 49 50
000
ASUS41 KCLE 050710
RWRCLE
OHIO REGIONAL WEATHER ROUNDUP
NATIONAL WEATHER SERVICE CLEVELAND, OH
300 AM EDT SAT SEP 05 2015

NOTE: "FAIR" INDICATES FEW OR NO CLOUDS BELOW 12,000 FEET WITH NO
SIGNIFICANT WEATHER AND/OR OBSTRUCTIONS TO VISIBILITY.

OHZ001>008-015>018-024>027-034-035-043-044-050800-
   NORTHWEST OHIO

CITY           SKY/WX    TMP DP  RH WIND       PRES   REMARKS
DEFIANCE       MOCLDY    69  64  84 CALM      30.09S
FINDLAY        PTCLDY    68  64  87 CALM      30.09R
TOLEDO EXPRESS MOCLDY    69  65  86 W6        30.07F
TOLEDO EXEC    MOCLDY    69  65  86 SW3       30.08S
LIMA           CLEAR     65  63  93 SW6       30.10S
$$

OHZ009>014-019>023-028>033-038-089-050800-
   NORTHEAST OHIO

CITY           SKY/WX    TMP DP  RH WIND       PRES   REMARKS
CLE-HOPKINS    CLEAR     70  66  87 S5        30.12S
CLE-LAKEFRONT  CLEAR     74  66  76 SE8       30.08F
CUY CO. ARPT   NOT AVBL
LORAIN-ELYRIA  CLEAR     65  63  93 SW5       30.10S
ASHTABULA      PTCLDY    67  65  93 CALM      30.13R
AKRON-CANTON   PTCLDY    68  62  81 CALM      30.13S
WOOSTER        CLEAR     64  63  96 CALM      30.13S FOG
MANSFIELD      PTCLDY    64  62  93 S6        30.11S
YOUNGSTOWN     PTCLDY    67  64  90 SE7       30.13S
$$

OHZ042-051>053-060>062-070>072-077>081-050800-
  SOUTHWEST OHIO

CITY           SKY/WX    TMP DP  RH WIND       PRES   REMARKS
CINC-COVINGTON PTCLDY    67  64  90 CALM      30.08F
CINC-LUNKEN    PTCLDY    65  65 100 CALM      30.08S FOG
HAMILTON       PTCLDY    66  65  96 CALM      30.09S FOG
DAYTON         PTCLDY    61  61 100 E8        30.11S
WRIGHT-PAT AFB CLEAR     64  64 100 NW3       30.09S
DAYTON GENERAL PTCLDY    64  62  93 E3        30.09S
WILMINGTON     PTCLDY    63  61  93 CALM      30.09F
$$

OHZ036-037-039>041-045>050-054>059-063>069-073>076-082>088-050800-
  CENTRAL AND SOUTHEAST OHIO

CITY           SKY/WX    TMP DP  RH WIND       PRES   REMARKS
COLUMBUS       PTCLDY    64  64 100 E3        30.10F
OSU AIRPORT    CLEAR     64  63  96 E3        30.10F
BOLTON FIELD   CLEAR     63  63 100 CALM      30.10F
RICKENBACK AFB CLEAR     63  63  97 NE3       30.09F
NEWARK         PTCLDY    61  60  97 CALM      30.11S FOG
MARION         CLEAR     64  61  90 S6        30.10S
LANCASTER      CLEAR     64  62  93 N5        30.11S FOG
ZANESVILLE     PTCLDY    65  63  93 CALM      30.11S
NEW PHILLY     FOG       65  65 100 E3        30.13S VSB 1/4
$$


USA.gov is the U.S. government's official web portal to all federal, state and local government web resources and services.